Simultaneous Nadir Overpasses (SNOs) Predictions

Prediction of SNOs between LANDSAT-8 and NOAA-19 Satellite Orbit:

Table of predicted SNOs for the next 14.0 days since TLE Epoch: 1/4/2019
Index Date (LANDSAT-8) Time (LANDSAT-8) Lat,Lon (LANDSAT-8) SZA (LANDSAT-8 ) Date (NOAA-19) Time (NOAA-19) Lat,Lon (NOAA-19) SZA (NOAA-19 ) Distance(km) Time Diff (sec)
1 01/06/2019 14:08:09 -78.36, 165.18 78.81 01/06/2019 14:07:11 -78.34, 165.17 78.85 2.58 58
2 01/06/2019 14:57:36 78.31, -27.42 101.13 01/06/2019 14:58:14 78.30, -27.37 101.13 1.57 38
3 01/08/2019 19:41:52 78.36, -98.24 100.89 01/08/2019 19:40:44 78.35, -98.18 100.87 2.37 68
4 01/08/2019 20:31:20 -78.33, 69.24 79.16 01/08/2019 20:31:41 -78.33, 69.21 79.16 0.99 21
5 01/11/2019 02:05:03 78.33, 165.79 100.51 01/11/2019 02:05:14 78.36, 165.71 100.54 3.51 11
6 01/13/2019 07:38:47 -78.35, -97.55 79.84 01/13/2019 07:38:41 -78.34, -97.47 79.84 2.07 6
7 01/15/2019 13:12:29 78.38, -0.83 99.80 01/15/2019 13:12:12 78.35, -0.79 99.76 3.71 17
8 01/15/2019 14:01:58 -78.31, 166.47 80.30 01/15/2019 14:03:11 -78.33, 166.54 80.26 3.04 73
9 01/17/2019 18:46:13 -78.40, 95.82 80.63 01/17/2019 18:45:41 -78.36, 95.82 80.66 3.82 32




NCC Satellite Simultaneous Nadir Overpasses (SNOs) Prediction Service
